Jamestown, ND

5:19 AM CDT on May 27, 2018 (GMT -0500)
Jamestown Municipal

Weather History for KJMS - February, 2013

Change the Weather History Date:

Sunday, February 17, 2013

  Actual Average Record
Temperature  
Mean Temperature 27 °F 16 °F  
Max Temperature 34 °F 25 °F 58 °F (1954)
Min Temperature 20 °F 6 °F -32 °F (1956)
Degree Days  
Heating Degree Days 38 49  
Month to date heating degree days 815 880  
Since 1 July heating degree days 6142 6242  
Cooling Degree Days 0 0  
Month to date cooling degree days 0 0  
Year to date cooling degree days 0 0  
Moisture  
Dew Point 25 °F    
Average Humidity 88    
Maximum Humidity 100    
Minimum Humidity 75    
Precipitation  
Precipitation 0.00 in 0.02 in 0.40 in (1901)
Month to date precipitation 0.27 0.20  
Year to date precipitation 0.45 0.65  
Sea Level Pressure  
Sea Level Pressure 29.60 in    
Wind  
Wind Speed 15 mph (SSW)    
Max Wind Speed 22 mph    
Max Gust Speed 25 mph    
Visibility 9 miles    
Events Rain , Snow    
T = Trace of Precipitation, MM = Missing Value Source: NWS Daily Summary

Daily Weather History Graph

Daily Weather History Graph

Search for Another Location

Airport or City:

Astronomy

Feb. 17, 2013 Rise Set
Actual Time 7:35 AM CST 6:02 PM CST
Civil Twilight 7:04 AM CST 6:33 PM CST
Nautical Twilight 6:28 AM CST 7:09 PM CST
Astronomical Twilight 5:53 AM CST 7:44 PM CST
Moon 10:59 AM CST (2/17) 1:29 AM CST (2/17)
Length of Visible Light 11h 29m
Length of Day
10h 27m
Waxing Crescent, 49% of the Moon is Illuminated
Feb 17
Waxing Crescent
Feb 17
First Quarter
Feb 25
Full
Mar 4
Last Quarter
Mar 11
New

Hourly Weather History & Observations

Time (CST) Temp. Windchill Dew Point Humidity Pressure Visibility Wind Dir Wind Speed Gust Speed Precip Events Conditions
12:56 AM 21.0 °F 6.6 °F 19.0 °F 92% 29.88 in 4.0 mi South 17.3 mph - N/A   Overcast
1:56 AM 21.9 °F 9.2 °F 19.9 °F 92% 29.86 in 4.0 mi South 13.8 mph - N/A   Overcast
2:56 AM 21.9 °F 7.8 °F 19.9 °F 92% 29.83 in 5.0 mi South 17.3 mph - N/A   Overcast
3:56 AM 21.0 °F 8.6 °F 19.0 °F 92% 29.81 in 8.0 mi South 12.7 mph - N/A   Mostly Cloudy
4:07 AM 21.2 °F 7.8 °F 19.4 °F 93% 29.72 in 10.0 mi South 15.0 mph - N/A   Scattered Clouds
4:56 AM 21.9 °F 7.3 °F 19.9 °F 92% 29.75 in 10.0 mi South 18.4 mph - N/A   Clear
5:56 AM 21.0 °F 6.6 °F 19.0 °F 92% 29.73 in 10.0 mi South 17.3 mph - N/A   Scattered Clouds
6:56 AM 21.0 °F 7.1 °F 19.0 °F 92% 29.70 in 10.0 mi South 16.1 mph - N/A   Overcast
7:56 AM 21.0 °F 6.6 °F 19.0 °F 92% 29.65 in 10.0 mi South 17.3 mph - N/A   Mostly Cloudy
8:56 AM 21.9 °F 6.9 °F 19.0 °F 89% 29.63 in 10.0 mi South 19.6 mph - N/A   Mostly Cloudy
9:56 AM 24.1 °F 10.1 °F 21.0 °F 88% 29.62 in 10.0 mi South 18.4 mph - N/A   Overcast
10:56 AM 25.0 °F 11.7 °F 21.0 °F 85% 29.59 in 10.0 mi South 17.3 mph - N/A   Clear
11:56 AM 28.0 °F 18.1 °F 23.0 °F 81% 29.59 in 10.0 mi SSW 11.5 mph - N/A   Partly Cloudy
12:56 PM 30.9 °F 21.2 °F 25.0 °F 79% 29.55 in 10.0 mi South 12.7 mph - N/A   Clear
1:56 PM 33.1 °F 23.0 °F 27.0 °F 78% 29.50 in 10.0 mi South 15.0 mph - N/A   Clear
2:56 PM 32.0 °F 22.5 °F 26.1 °F 79% 29.50 in 10.0 mi South 12.7 mph - N/A   Scattered Clouds
3:56 PM 30.0 °F 21.1 °F 25.0 °F 82% 29.50 in 10.0 mi South 10.4 mph - N/A   Mostly Cloudy
4:56 PM 28.9 °F 19.2 °F 25.0 °F 85% 29.50 in 10.0 mi South 11.5 mph - N/A   Overcast
5:56 PM 28.9 °F 22.8 °F 25.0 °F 85% 29.52 in 10.0 mi South 5.8 mph - N/A   Overcast
6:56 PM 27.0 °F 20.5 °F 24.1 °F 89% 29.54 in 10.0 mi SSW 5.8 mph - N/A   Overcast
7:56 PM 28.0 °F 24.2 °F 24.1 °F 85% 29.54 in 10.0 mi West 3.5 mph - N/A   Mostly Cloudy
8:56 PM 32.0 °F 27.5 °F 28.0 °F 85% 29.54 in 10.0 mi WNW 4.6 mph - N/A   Mostly Cloudy
9:52 PM 35.6 °F 28.6 °F 30.2 °F 81% 29.48 in 10.0 mi West 9.2 mph - 0.00 in Rain Light Rain
9:56 PM 35.1 °F 27.9 °F 30.9 °F 85% 29.54 in 10.0 mi WNW 9.2 mph - 0.00 in Rain Light Rain
10:06 PM 35.6 °F 29.9 °F 30.2 °F 81% 29.48 in 10.0 mi West 6.9 mph - 0.01 in Rain Light Rain
10:32 PM 33.8 °F 29.6 °F 32.0 °F 93% 29.48 in 10.0 mi WNW 4.6 mph - 0.01 in Rain Light Rain
10:56 PM 34.0 °F 29.8 °F 32.0 °F 92% 29.53 in 6.0 mi West 4.6 mph - 0.01 in Snow Light Snow
11:40 PM 33.8 °F 27.7 °F 32.0 °F 93% 29.47 in 6.0 mi WSW 6.9 mph - 0.02 in Snow Light Snow
11:52 PM 33.8 °F 27.7 °F 32.0 °F 93% 29.47 in 8.0 mi WSW 6.9 mph - 0.02 in   Overcast
11:56 PM 34.0 °F 27.2 °F 32.0 °F 92% 29.52 in 8.0 mi West 8.1 mph - 0.02 in   Overcast